Weather in Mỹ Tho

Vietnam     10°21′41″N   106°21′40″E
temp.,
°C
wind,
m/s
gust,
m/s
humid.,
%
clouds,
%
prec.,
mm/h
press.,
hPa
HPBL,
m
13 may, thu
thu1301:00+27sse2583100 0.0 1007154
04:00+26se148695 0.0 1006101
07:00+29se1276100 0.0 1007299
10:00+35e2347100 0.0 10081720
13:00+37e433699 0.0 10052468
16:00+35ese444091 0.0 10031378
19:00+29se37694 0.1 1005359
22:00+27sse2683100 0.4 1007237
14 may, fri
fri1401:00+26se1189100 1.8 100637
04:00+26sse1493100 1.2 1005126
07:00+28sse248092 1.3 1007284
10:00+34ese2450100 1.7 10071717
13:00+34se3448100 1.8 10051722
16:00+35ese434655 0.0 10031737
19:00+29se376726 0.0 1005337
22:00+27se267937 0.2 1008205
15 may, sat
sat1501:00+26ese119143 2.8 100717
04:00+25sse1193100 2.1 100621
07:00+28se1383100 2.1 1008197
10:00+33ese3455100 0.6 10081594
13:00+35se454572 0.8 10051629
16:00+35ese34445 0.0 10041735
19:00+29se377389 0.0 1005425
22:00+26ese289110 3.4 1007262
16 may, sun
sun1601:00+25se27935 9.3 1006191
04:00+26se129250 1.6 100534
07:00+28sse12855 1.9 1008197
10:00+32ese24658 2.2 10081156
13:00+35se3448100 3.4 10051958
16:00+35se334817 0.0 10041709
19:00+29se38755 0.0 1006318
22:00+26se278927 1.0 1007217
17 may, mon
mon1701:00+25s149423 4.7 1007113
04:00+26s1194100 2.3 100636
07:00+28sse1286100 2.3 1007167
10:00+34ese1254100 0.0 10081276
13:00+37ese1243100 0.1 10052333
16:00+32s366271 0.1 1004460
19:00+28se2776100 0.3 1006235
22:00+27ene1188100 1.5 100823